Regional Weather Roundup
Issued by NWS Green Bay, WI

Home | Current Version | Previous Version | Text Only | Print | Product List | Glossary On
Versions: 1 2 3 4 5 6 7 8 9 10 11 12 13 14 15 16 17 18 19 20 21 22 23 24 25 26 27 28 29 30 31 32 33 34 35 36 37 38 39 40 41 42 43 44 45 46 47 48 49 50
000
ASUS43 KGRB 280711
RWRGRB

NORTH-CENTRAL AND NORTHEAST WISCONSIN REGIONAL WEATHER ROUNDUP
NATIONAL WEATHER SERVICE GREEN BAY WI
100 AM CST TUE FEB 28 2017

WIZ005-009-010>012-018-019-280800-
NORTH CENTRAL WISCONSIN

CITY           SKY/WX    TMP DP  RH WIND       PRES   REMARKS
IRONWOOD       CLOUDY    36  26  67 S12       29.87S
MANITOWISH WTR CLOUDY    30  26  82 SE6       29.89S
ARBOR VITAE    CLOUDY    34  28  80 S7          N/A
EAGLE RIVER    CLOUDY    32  26  77 S5        29.90F
LAND O LAKES   CLOUDY    33  28  80 S7        29.92F
RHINELANDER    CLOUDY    34  28  79 SE6       29.91F
PHILLIPS       CLOUDY    32  28  84 CALM      29.88F
ANTIGO         CLOUDY    31  29  92 SE9       29.94F
TOMAHAWK       CLOUDY    32  28  84 CALM      29.91F
MERRILL        NOT AVBL
$$

WIZ013-073-280800-
NORTHEAST WISCONSIN

CITY           SKY/WX    TMP DP  RH WIND       PRES   REMARKS
IRON MOUNTAIN  CLOUDY    31  25  78 SE5       29.96F
MARINETTE      PTCLDY    34  32  92 S6        30.00F FOG
OCONTO         PTCLDY    30  29  96 SE6       29.99F
$$

WIZ017-030-035>037-045-280800-
CENTRAL WISCONSIN

CITY           SKY/WX    TMP DP  RH WIND       PRES   REMARKS
MEDFORD        PTCLDY    33  28  82 SE7       29.88F
WAUSAU         CLOUDY    32  28  85 E7        29.91F
MOSINEE        CLOUDY    34  32  93 SE7       29.92F
MARSHFIELD     CLOUDY    34  28  79 E7        29.88F
WISC RAPIDS    CLOUDY    38  31  76 SE7       29.92F
STEVENS POINT  CLOUDY    34  30  84 SE5       29.93F
WAUPACA        CLOUDY    35  32  88 E5        29.96F
SHAWANO        CLOUDY    32  29  90 CALM      29.97F FOG
CLINTONVILLE   CLOUDY    32  30  93 CALM      29.96F
WAUTOMA        CLOUDY    31  28  89 CALM      29.95F
$$

WIZ038-039-048-051-280800-
FOX VALLEY

CITY           SKY/WX    TMP DP  RH WIND       PRES   REMARKS
NWS GREEN BAY  CLOUDY    37  33  85 SE7       29.98F
APPLETON       CLOUDY    34  30  86 SE7       29.95F
OSHKOSH        PTCLDY    39  32  76 SE8       29.96F
FOND DU LAC    LGT RAIN  40  31  70 S9        29.97F
$$

WIZ022-050-052-280800-
EAST CENTRAL WISCONSIN

CITY           SKY/WX    TMP DP  RH WIND       PRES   REMARKS
EPHRAIM        FAIR      35  35 100 S8        30.00F FOG
WASHINGTON ISL PTSUNNY   37  34  90 S7        30.01F
STURGEON BAY   PTCLDY    36  34  92 E6        30.01F
MANITOWOC      CLOUDY    35  33  92 SE5       30.02F FOG
SHEBOYGAN      MOCLDY    38  34  85 S9        30.01F
$$

LMZ563-521-522-541>543-280800-
LAKESHORE

STATION/POSITION TIME  TEMP    WIND        PRES    VSBY  WAVE
                       AIR SEA DIR/SP/G                  HT/PER
                 (UTC) (F)     (DEG/KT/KT) (MB)    (MI)  (FT/S)
SHEBOYGAN LKSHOR 0700   38     180/ 11/ 12 1016.7F
KEWAUNEE LKSHORE 0648          140/  3/  5 1016.0F
ALGOMA MARINA    0641          140/  5/  5   N/A
NORTHPORT PIER   0640   37     150/  7/  9 1016.9F
SISTER BAY LKSHO 0635   36     140/ 10/ 13   N/A
CHAMBERS ISLAND  0640   38     150/  4/  8 1015.9F
MENOMINEE LKSHOR 0648          150/  6/  7 1015.1F
$$




USA.gov is the U.S. government's official web portal to all federal, state and local government web resources and services.